Regional Weather Roundup
Issued by NWS Kansas City/Pleasant Hill, MO

Home | Current Version | Previous Version | Graphics & Text | Print | Product List | Glossary Off
Versions: 1 2 3 4 5 6 7 8 9 10 11 12 13 14 15 16 17 18 19 20 21 22 23 24 25 26 27 28 29 30 31 32 33 34 35 36 37 38 39 40 41 42 43 44 45 46 47 48 49 50

000
ASUS43 KEAX 200110
RWREAX

WEATHER ROUNDUP FOR EASTERN KANSAS AND NORTHWEST MISSOURI
NATIONAL WEATHER SERVICE KANSAS CITY/PLEASANT HILL MO
800 PM CDT FRI SEP 19 2014

KSZ040-057-103>105-MOZ028-029-037-043-200200-
...KANSAS CITY METROPOLITAN AREA...

CITY           SKY/WX    TMP DP  RH WIND       PRES   REMARKS
K.C. INTL      PTCLDY    72  68  87 S9        29.92F
K.C. DOWNTOWN  CLEAR     76  67  73 S7        29.92S
LEES SUMMIT    CLEAR     73  67  81 S6        29.95S
OLATHE - IXD   CLEAR     72  67  84 S7        29.95S
OLATHE - OJC   PTCLDY    73  68  84 S8        29.94S
LAWRENCE       CLEAR     74  67  78 S10       29.92F

$$

MOZ001>008-011>017-020>025-030>033-038>040-044>046-053-054-200200-
...NORTHERN AND CENTRAL MISSOURI...

CITY           SKY/WX    TMP DP  RH WIND       PRES   REMARKS
ST. JOSEPH     CLEAR     73  68  84 S8        29.89F
MOSBY          CLEAR     72  68  88 SE5       29.93S
WHITEMAN AFB   CLEAR     71  66  84 SE6       29.96S
CLINTON        CLEAR     72  68  88 CALM      29.97S
SEDALIA        CLEAR     69  64  84 SE5       29.98S
WARSAW         NOT AVBL
MARSHALL       CLEAR     70  66  88 SE6       29.97S
CHILLICOTHE      N/A     72  65  78 S6        29.94F
MOBERLY        CLEAR     68  61  77 S6        29.98F
KIRKSVILLE     CLEAR     67  61  81 S8        29.96F

$$

MOZ041-047>049-056>058-063>065-088>090-097-200200-
...EASTERN AND SOUTHERN MISSOURI...

CITY           SKY/WX    TMP DP  RH WIND       PRES   REMARKS
ST. LOUIS INTL PTCLDY    75  57  53 S6        30.01S
SPIRIT OF STL  CLEAR     66  61  84 S5        29.99S
COLUMBIA       CLEAR     70  62  76 S3        29.99S
JEFFERSON CITY CLEAR     69  62  78 E3        29.98S
MEXICO         CLEAR     64  64 100 CALM      29.99S
HANNIBAL       CLEAR     68  57  68 SE5       29.99S
ROLLA          HAZE      66  59  78 S3        30.00S VSB 3/4
LEBANON        CLEAR     68  63  83 CALM      30.02S
OSAGE BEACH    CLEAR     72  63  73 CALM      29.99S
SPRINGFIELD    CLEAR     70  63  78 SE5       30.00S
BRANSON        MOCLDY    70  66  88 E6        30.02S
NEVADA         CLEAR     70  66  88 S3        29.98S
JOPLIN         CLEAR     73  68  84 CALM      29.98S
WEST PLAINS    CLEAR     68  63  84 CALM      30.03S

$$

IAZ060-094-KSZ022-034>040-054-083-096-NEZ052-066-093-200200-
...KANSAS...SOUTHEAST NEBRASKA AND IOWA...

CITY           SKY/WX    TMP DP  RH WIND       PRES   REMARKS
TOPEKA         CLEAR     75  70  84 S10       29.91S
MANHATTAN      CLEAR     77  69  76 S12G21    29.87S
EMPORIA        CLEAR     71  68  90 S10       29.94S
CHANUTE        PTCLDY    70  68  93 SE7       29.97S FOG
WICHITA        CLEAR     81  65  58 SE14      29.92R
OMAHA          PTCLDY    80  68  66 S17       29.79S
LINCOLN        CLEAR     79  66  64 S12       29.81R
FALLS CITY     CLEAR     75  69  81 S10       29.87R
LAMONI         PTCLDY    69  66  90 S13G20    29.90F
DES MOINES     PTCLDY    73  65  75 S14       29.85S

$$




USA.gov is the U.S. government's official web portal to all federal, state and local government web resources and services.